[[{"header":{"parameterUnit":"m.s-1","parameterCategory":1,"la1":30.2991,"la2":30.254,"lo1":-89.0895,"lo2":-89.0444,"dy":0.0017,"dx":0.0017,"nx":28,"ny":28,"refTime":"2026-01-07T09:00:00:Z","depth":0,"parameterNumber":2,"parameterNumberName":"U-component_of_WINDS"},"data":[0,0,0,0,0,0,0,0,0,0,0,0,0,0,0,0,0,0,0,0,0,0,0,0,0,0,0,0,0,0,0,0,0,0,0,0,0,0,0,0,0,0,0,0,0,0,0,0,0,0,0,0,0,0,0,0,0,0,2.3752,2.3753,0,2.3825,2.3825,2.3826,2.3777,2.3774,2.3772,2.377,2.3852,2.3857,2.3861,0,0,0,0,0,0,0,0,0,0,0,0,0,2.3579,2.3583,2.3752,2.3753,2.3754,2.3825,2.3826,2.3827,2.3777,2.3774,2.3771,2.3769,2.3851,2.3856,2.3861,0,0,0,0,0,0,0,0,0,0,0,0,0,2.3654,2.3584,2.3752,2.3737,2.3737,2.3824,2.3826,2.3827,2.3778,2.3774,2.3771,2.3767,2.3849,2.3856,2.3862,2.397,0,0,2.3882,2.3885,0,0,0,0,0,0,0,0,2.3649,2.366,2.3739,2.3738,2.3738,2.3788,2.3795,2.3875,2.3778,2.3762,2.377,2.3766,2.3834,2.3842,2.3863,2.3974,2.3978,2.3882,2.3886,2.3889,2.3891,0,0,0,0,0,0,0,2.3644,2.3657,2.3781,2.374,2.3739,2.373,2.3737,2.381,2.3817,2.3763,2.376,2.3769,2.3834,2.3857,2.3865,2.3979,2.3882,2.3888,2.3892,2.3895,2.4185,2.4189,0,0,0,0,0,0,2.3639,2.3653,2.3779,2.3783,2.3684,2.3736,2.3744,2.3775,2.3816,2.3818,2.3772,2.3766,2.3848,2.3857,2.3867,2.3998,2.3889,2.3895,2.3899,2.4181,2.4186,2.419,0,0,0,0,0,0,2.3636,2.3651,2.3776,2.3717,2.3732,2.3743,2.3779,2.3779,2.3802,2.3822,2.3824,2.3794,2.3845,2.3858,2.3945,2.4,2.3898,2.3904,2.4177,2.4183,2.4188,2.4259,0,0,0,0,0,0,2.3631,2.365,2.3689,2.3718,2.3735,2.3849,2.3782,2.3783,2.3812,2.3806,2.3843,2.3846,2.3844,2.3936,2.3952,2.4007,2.3909,2.4172,2.418,2.4186,2.4252,2.4266,2.4279,0,0,0,0,0,2.3625,2.3707,2.3691,2.3706,2.3784,2.3852,2.3863,2.3856,2.3817,2.3858,2.3871,2.3845,2.3992,2.3945,2.3962,2.4021,2.4169,2.4177,2.4186,2.4245,2.4263,2.4278,0,0,0,0,0,0,2.3686,2.371,2.3693,2.3786,2.3817,2.3844,2.3894,2.3875,2.3919,2.3912,2.3904,2.3913,2.4004,2.4021,2.3969,2.4129,2.4074,2.4087,2.4114,2.4131,2.4144,2.4138,2.3914,0,0,0,0,0,2.371,2.3761,2.3781,2.3862,2.3878,2.3884,2.3914,2.3906,2.3939,2.3952,2.3972,2.4007,2.4061,2.4097,2.4148,2.4254,2.4263,2.4304,2.4317,2.4328,2.4339,2.4399,2.4417,2.4219,2.4219,2.4218,0,0,2.3761,2.378,2.3813,2.3874,2.3897,2.3953,2.3895,2.3956,2.3999,2.3963,2.4044,2.4061,2.41,2.4198,2.4241,2.4215,2.4396,2.4339,2.4348,2.4353,2.4409,2.4428,2.4445,2.4224,2.4223,2.4222,0,0,2.3881,2.3901,2.397,2.3995,2.403,2.4034,2.4051,2.4081,2.4089,2.4171,2.4146,2.4198,2.4291,2.432,2.4348,2.4483,2.4461,2.45,2.4571,2.4629,2.4644,2.4658,2.4707,2.4725,2.4511,2.4511,2.4511,0,2.394,2.402,2.401,2.4073,2.4101,2.407,2.4142,2.4167,2.4219,2.4241,2.421,2.4327,2.4351,2.4455,2.4488,2.4511,2.4533,2.4495,2.4642,2.4656,2.4669,2.4716,2.4734,2.4515,2.4515,2.4514,2.4514,0,2.4092,2.4148,2.4201,2.4249,2.4284,2.4352,2.4354,2.4392,2.4382,2.439,2.4476,2.4504,2.4561,2.4586,2.4577,2.469,2.4672,2.4642,2.4587,2.4692,2.4736,2.4754,2.4522,2.452,2.4519,2.4518,0,0,2.4251,2.4293,2.4312,2.4334,2.4372,2.4417,2.4486,2.4539,2.4572,2.4609,2.4668,2.4748,2.4721,2.4752,2.4747,2.4798,2.4905,2.4762,2.4763,2.4788,2.5033,2.5055,2.5076,2.4891,2.4895,2.4898,2.503,0,2.4373,2.4488,2.4482,2.4591,2.4644,2.4617,2.4676,2.4708,2.4718,2.4768,2.4781,2.4838,2.4797,2.4816,2.4865,2.4881,2.4954,2.4872,2.4948,2.4951,2.4938,2.5099,2.5122,2.5245,2.5047,2.505,2.5052,0,2.4531,2.4571,2.4685,2.4717,2.4739,2.4792,2.4842,2.4889,2.4926,2.493,2.4966,2.4953,2.5026,2.497,2.5071,2.5015,2.5047,2.506,2.5065,2.5071,2.5007,2.511,2.5284,2.5303,2.5079,2.5077,2.5075,0,2.4635,2.472,2.4799,2.4819,2.4857,2.4896,2.4914,2.4947,2.4981,2.5025,2.5047,2.5101,2.5131,2.5174,2.5178,2.5136,2.5281,2.5225,2.5289,2.5289,2.532,2.5318,2.5502,2.5341,2.534,2.534,2.5339,0,2.4772,2.4843,2.4846,2.4895,2.4975,2.4969,2.505,2.5065,2.5095,2.5149,2.513,2.5181,2.5183,2.5237,2.5241,2.5326,2.5339,2.5347,2.5347,2.5348,2.5347,2.5368,2.536,2.5345,2.5344,2.5343,2.5342,0,2.4902,2.4906,2.4991,2.5021,2.503,2.5088,2.5115,2.5164,2.5173,2.5241,2.5258,2.5273,2.5336,2.5344,2.5419,2.5422,2.5523,2.5515,2.551,2.5508,2.5572,2.5566,2.5776,2.5804,2.5624,2.5626,2.5628,0,2.4988,2.5042,2.5078,2.5111,2.5131,2.5186,2.5219,2.5217,2.5254,2.5301,2.5344,2.5405,2.5452,2.5555,2.5575,2.5633,2.5625,2.5695,2.5634,2.5634,2.5627,2.5624,2.563,2.5707,2.5709,2.571,2.5711,0,2.5142,2.5142,2.5189,2.5239,2.5279,2.5319,2.5356,2.5385,2.5389,2.5431,2.5494,2.5531,2.5606,2.5668,2.5725,2.5747,2.5732,2.5731,2.5749,2.575,2.5745,2.5749,2.5542,2.5726,2.5724,2.5723,2.5722,2.5722,2.5253,2.53,2.5332,2.5387,2.5415,2.545,2.5497,2.5513,2.5564,2.5623,2.562,2.569,2.5729,2.5804,2.5831,2.5888,2.5865,2.5891,2.5897,2.5904,2.591,2.5737,2.5898,2.5898,2.5897,2.5897,2.5897,0,2.5405,2.5425,2.5475,2.5527,2.5571,2.555,2.5592,2.563,2.5691,2.5728,2.5775,2.5849,2.5909,2.5935,2.5994,2.6035,2.603,2.6051,2.6048,2.6054,2.5927,2.5905,2.6055,2.6055,2.6055,2.6055,2.6055,2.6055,2.5489,2.5568,2.5573,2.5667,2.5687,2.5753,2.5779,2.5813,2.5842,2.5924,2.5973,2.5989,2.6022,2.6085,2.614,2.6147,2.617,2.6195,2.6198,2.6079,2.6063,2.6047,2.6027,2.62,2.62,2.6321,2.6322,2.6323]},{"header":{"parameterUnit":"m.s-1","parameterCategory":1,"la1":30.2991,"la2":30.254,"lo1":-89.0895,"lo2":-89.0444,"dy":0.0017,"dx":0.0017,"nx":28,"ny":28,"refTime":"2026-01-07T09:00:00:Z","depth":0,"parameterNumber":3,"parameterNumberName":"V-component_of_WINDS"},"data":[0,0,0,0,0,0,0,0,0,0,0,0,0,0,0,0,0,0,0,0,0,0,0,0,0,0,0,0,0,0,0,0,0,0,0,0,0,0,0,0,0,0,0,0,0,0,0,0,0,0,0,0,0,0,0,0,0,0,1.2335,1.2335,0,1.2329,1.2329,1.2329,1.2276,1.2274,1.2273,1.2272,1.227,1.2272,1.2273,0,0,0,0,0,0,0,0,0,0,0,0,0,1.2303,1.2304,1.2335,1.2335,1.2335,1.2329,1.2329,1.2329,1.2276,1.2274,1.2273,1.2271,1.227,1.2271,1.2273,0,0,0,0,0,0,0,0,0,0,0,0,0,1.231,1.2304,1.2335,1.2307,1.2305,1.2329,1.2329,1.2329,1.2276,1.2274,1.2272,1.227,1.227,1.2271,1.2273,1.2325,0,0,1.2279,1.228,0,0,0,0,0,0,0,0,1.2309,1.2311,1.2312,1.2309,1.2307,1.2301,1.2318,1.2328,1.2277,1.2287,1.2272,1.2269,1.2283,1.2283,1.2287,1.2325,1.2325,1.2279,1.228,1.2281,1.2281,0,0,0,0,0,0,0,1.2309,1.2311,1.2333,1.2312,1.2309,1.2297,1.2295,1.2319,1.2297,1.2286,1.2282,1.2282,1.2281,1.2285,1.2286,1.2325,1.2279,1.2281,1.2282,1.2282,1.2406,1.2408,0,0,0,0,0,0,1.2312,1.2311,1.2333,1.2333,1.2303,1.2299,1.2297,1.2305,1.2296,1.2293,1.2284,1.228,1.2283,1.2284,1.2286,1.2347,1.2281,1.2283,1.2284,1.2404,1.2407,1.2409,0,0,0,0,0,0,1.2311,1.2314,1.2333,1.2321,1.2322,1.2301,1.2311,1.2306,1.231,1.2294,1.229,1.2292,1.2281,1.2283,1.2316,1.2346,1.2283,1.2285,1.2401,1.2405,1.2408,1.2469,0,0,0,0,0,0,1.2311,1.2314,1.2333,1.2321,1.2323,1.2362,1.2312,1.2307,1.2313,1.2307,1.2301,1.2298,1.228,1.2313,1.2317,1.2347,1.2286,1.2399,1.2403,1.2407,1.2464,1.2473,1.2482,0,0,0,0,0,1.231,1.2351,1.2334,1.2337,1.2345,1.2364,1.2365,1.2342,1.2315,1.2335,1.2324,1.2298,1.2342,1.2317,1.2321,1.2352,1.2397,1.2402,1.2406,1.246,1.2472,1.2482,0,0,0,0,0,0,1.2368,1.2349,1.233,1.2369,1.2368,1.2354,1.2378,1.2355,1.2363,1.2358,1.233,1.2329,1.2366,1.2362,1.2335,1.2402,1.2365,1.2371,1.2404,1.2415,1.2424,1.2424,1.2288,0,0,0,0,0,1.2385,1.24,1.2383,1.2419,1.242,1.2399,1.2406,1.2388,1.2387,1.2387,1.2379,1.238,1.2394,1.2404,1.2416,1.2462,1.2461,1.2486,1.2495,1.2503,1.2509,1.2534,1.2545,1.2425,1.2425,1.2425,0,0,1.2422,1.2413,1.2424,1.2431,1.2428,1.2446,1.2399,1.242,1.2433,1.2391,1.242,1.2415,1.2414,1.2454,1.2471,1.2452,1.2541,1.2509,1.2515,1.2517,1.254,1.2552,1.2562,1.2428,1.2428,1.2427,0,0,1.2497,1.2491,1.2521,1.2519,1.2515,1.2501,1.2508,1.2498,1.2492,1.2521,1.249,1.2505,1.253,1.2531,1.2534,1.261,1.2586,1.2614,1.2662,1.2687,1.2697,1.2705,1.2733,1.2743,1.262,1.262,1.262,0,1.2543,1.2566,1.2539,1.2561,1.2566,1.2526,1.2557,1.2557,1.2558,1.2562,1.254,1.257,1.2567,1.2607,1.2625,1.2629,1.2637,1.2616,1.2697,1.2705,1.2713,1.2739,1.275,1.2624,1.2623,1.2623,1.2623,0,1.2624,1.2641,1.2665,1.2666,1.2672,1.2699,1.2677,1.2687,1.2669,1.2658,1.2688,1.2683,1.2693,1.2701,1.2684,1.2739,1.2727,1.2702,1.2663,1.2728,1.2752,1.2762,1.2629,1.2627,1.2626,1.2626,0,0,1.2737,1.2721,1.273,1.273,1.2723,1.2736,1.2761,1.277,1.278,1.2782,1.2803,1.2825,1.2801,1.2805,1.2788,1.2809,1.2871,1.2781,1.2781,1.2799,1.2932,1.2953,1.2965,1.2854,1.2856,1.2858,1.2933,0,1.281,1.285,1.2826,1.2871,1.2887,1.285,1.2872,1.2871,1.2861,1.2874,1.2864,1.288,1.2846,1.2849,1.2868,1.2859,1.2897,1.2853,1.2876,1.2877,1.2878,1.2977,1.2999,1.307,1.2942,1.2944,1.2945,0,1.29,1.2905,1.2951,1.2941,1.2947,1.2967,1.2973,1.2986,1.2984,1.2975,1.298,1.2957,1.2982,1.2943,1.2979,1.2949,1.2957,1.2954,1.2956,1.2959,1.2916,1.2984,1.3092,1.3103,1.2959,1.2958,1.2957,0,1.298,1.2997,1.3027,1.3028,1.3017,1.3032,1.3028,1.3024,1.3031,1.3037,1.3041,1.305,1.3056,1.3064,1.3045,1.3018,1.3084,1.3043,1.3079,1.308,1.3096,1.3095,1.3208,1.3098,1.3098,1.3098,1.3098,0,1.3064,1.3095,1.3063,1.3081,1.3114,1.3087,1.3121,1.3113,1.311,1.3127,1.3096,1.3113,1.3086,1.3102,1.3087,1.3119,1.3122,1.3117,1.3113,1.312,1.3121,1.3126,1.3121,1.3101,1.31,1.31,1.3099,0,1.3159,1.3138,1.3169,1.3155,1.3152,1.3178,1.3166,1.3184,1.3171,1.3194,1.3198,1.3179,1.3195,1.3177,1.3192,1.3182,1.3226,1.3214,1.3226,1.3224,1.3261,1.3258,1.3382,1.3398,1.3277,1.3278,1.3279,0,1.3215,1.3237,1.3225,1.3234,1.3232,1.3247,1.3253,1.3227,1.3236,1.3235,1.3253,1.3266,1.3276,1.3304,1.3292,1.3304,1.3293,1.3336,1.3295,1.3302,1.3295,1.3295,1.3298,1.3345,1.3346,1.3347,1.3348,0,1.3317,1.3306,1.3316,1.3322,1.3331,1.3335,1.3337,1.3347,1.332,1.3331,1.3346,1.3353,1.3368,1.3383,1.3391,1.3388,1.3365,1.3361,1.337,1.3379,1.3386,1.3384,1.3251,1.3359,1.3358,1.3357,1.3356,1.3356,1.3395,1.3413,1.3408,1.342,1.3419,1.3421,1.3437,1.3426,1.3438,1.3447,1.3431,1.3452,1.345,1.3458,1.3458,1.3475,1.3457,1.347,1.3473,1.3477,1.3484,1.3382,1.3476,1.3476,1.3475,1.3475,1.3475,0,1.3497,1.3491,1.3503,1.3506,1.3516,1.349,1.3492,1.3502,1.352,1.3519,1.3529,1.3547,1.3561,1.355,1.3562,1.3577,1.3567,1.3581,1.3581,1.3581,1.3498,1.349,1.359,1.359,1.359,1.359,1.359,1.359,1.3551,1.358,1.3569,1.3598,1.3592,1.361,1.3613,1.3616,1.3616,1.3637,1.3648,1.364,1.3636,1.3647,1.3659,1.3656,1.3662,1.3681,1.3675,1.3598,1.3587,1.3576,1.3568,1.3683,1.3683,1.3756,1.3757,1.3757]}]]